{"data":{"norad_id":56374,"epoch":"2026-09-20T01:49:52.512672Z","epoch_age_seconds":148580,"freshness":"FRESH","line1":"1 56374U 23061A   26263.07630223  .00000039  00000+0  10917-4 0  9992","line2":"2 56374  43.0022 180.5331 0000580 233.0203 127.0595 15.27575701187572","mean_motion":15.27575701,"eccentricity":5.8e-5,"inclination_deg":43.0022,"raan_deg":180.5331,"arg_perigee_deg":233.0203,"mean_anomaly_deg":127.0595,"bstar":1.0917e-5,"rev_number":18757,"period_min":94.267014005089,"perigee_km":482.66401928221,"apogee_km":483.45991836259,"semimajor_km":6861.1989688224,"source":"CELESTRAK","updated_at":"2026-09-21T09:00:33.430124Z"}}